Flag for Malawi Weather past 2 weeks in Mzuzu, Malawi

Now
73 °F

Scattered clouds.


Feels Like: 77 °F
Forecast: 57 / 74 °F
Wind: 9 mph from Southeast

Location: Lichinga Airport

Current Time: Oct 21, 2014 at 2:17:57 PM

Latest Report: Oct 21, 2014 at 12:00 PM


Visibility: N/A

Pressure: 30.21 "Hg

Humidity: 44%

Dew point: 50 °F

Location of MzuzuLocation

Historic Weather in Mzuzu — Graph

°F

Mzuzu temperature yesterday

Maximum temperature yesterday: 63 °F (at 12:00 PM)
Minimum temperature yesterday: 57 °F (at 1:00 AM)
Average temperature yesterday: 60 °F

Past Weeks' High & Low Weather Summary

 TemperatureHumidityPressure
High88 °F (Oct 16, 3:00 PM)100% (Oct 9, 11:00 PM)30.24 "Hg (Oct 9, 11:00 PM)
Low50 °F (Oct 19, 11:00 PM)24% (Oct 8, 2:00 PM)30.01 "Hg (Oct 16, 3:00 PM)
Average71 °F60%30.16 "Hg
* Reported Oct 6 12:00 Noon — Oct 21 12:00 Noon, Mzuzu, Weather by CustomWeather, © 2014

Note: Actual official high and low records may vary slightly from our data, if they occured in-between our weather recording intervals... More about our weather records

Advertising

Mzuzu weather history for previous 24 hours

 ConditionsComfort  
Time TempWeatherWind HumidityBarometerVisibility
12:00 PM
Oct 21
73 °FScattered clouds.9 mph44%30.21 "HgN/A
11:00 AM72 °FPassing clouds.14 mph61%30.24 "HgN/A
10:00 AM70 °FPassing clouds.22 mph60%30.24 "HgN/A
9:00 AM66 °FPassing clouds.23 mph68%30.24 "HgN/A
8:00 AM64 °FPassing clouds.30 mph68%30.21 "HgN/A
7:00 AM63 °FPassing clouds.15 mph83%30.24 "HgN/A
6:00 AM59 °FFog.7 mph100%30.21 "Hg4 mi
5:00 AM61 °FPassing clouds.7 mph94%30.18 "HgN/A
11:00 PM
Oct 20
61 °FPassing clouds.9 mph88%30.18 "HgN/A
10:00 PM61 °FPassing clouds.7 mph88%30.18 "HgN/A
8:00 PM61 °FPassing clouds.8 mph94%30.15 "HgN/A
7:00 PM61 °FPartly cloudy.8 mph100%30.15 "HgN/A
6:00 PM61 °FPartly cloudy.13 mph100%30.15 "HgN/A
5:00 PM63 °FDrizzle. Broken clouds.16 mph94%30.15 "HgN/A
4:00 PM63 °FDrizzle. Broken clouds.15 mph100%30.15 "HgN/A
2:00 PM63 °FBroken clouds.22 mph88%30.15 "HgN/A
Weather by CustomWeather, © 2014

See weather overviewHow to use our weather pages